ECHOSTAR 15

Last updated on Thu Nov 21 2024 00:02:41 GMT+0000 (Coordinated Universal Time)

1 36792U 10034A 24325.31507694 -.00000280 00000+0 00000+0 0 9995 2 36792 0.0159 30.7332 0002397 180.7191 260.1756 1.00271703 52577
UTC large
Height (km)
Speed (km/s)
/
Latitude / Longitude
Inclination (degrees)
Orbital Period (minutes)
Azimuth
Elevation
Range (km)
Doppler Factor

Next 0 passes for location: London (51.5072 / 0.1276)

Sorry there are no passes over London.